Regional Weather Roundup
Issued by NWS

Home | Current Version | Previous Version | Text Only | Print | Product List | Glossary Off
Versions: 1 2 3 4 5 6 7 8 9 10 11 12 13 14 15 16 17 18 19 20 21 22 23 24 25 26 27 28 29 30 31 32 33 34 35 36 37 38 39 40 41 42 43 44 45 46 47 48 49 50

000
ASUS43 KMPX 251501
RWRMN
WEATHER ROUNDUP FOR MINNESOTA
NATIONAL WEATHER SERVICE TWIN CITIES/CHANHASSEN MN
1000 AM CDT SAT OCT 25 2014


NOTE: "FAIR" INDICATES FEW OR NO CLOUDS BELOW 12,000 FEET WITH NO
SIGNIFICANT WEATHER AND/OR OBSTRUCTIONS TO VISIBILITY. N/A MEANS
CURRENT SKY AND/OR WEATHER CONDITIONS ARE NOT AVAILABLE.

MNZ060>063-068>070-251600-
   Twin Cities Metro

CITY           SKY/WX    TMP DP  RH WIND       PRES   REMARKS
TWIN CITIES    MOSUNNY   55  33  43 NW14      30.05R
ST PAUL        MOSUNNY   55  34  45 NW17      30.05R
CRYSTAL        MOSUNNY   54  34  46 NW12      30.04R
LAKEVILLE      PTSUNNY   54  34  47 NW9G17    30.05R
EDEN PRAIRIE   PTSUNNY   54  33  45 NW12      30.05R
SOUTH ST PAUL  MOSUNNY   56  32  39 NW16      30.03S
LAKE ELMO      FAIR      54  36  50 NW12      30.04R
$$
MNZ001>005-007-008-013>017-022>024-027-028-251600-
   Northwest Minnesota

CITY           SKY/WX    TMP DP  RH WIND       PRES   REMARKS
BEMIDJI        SUNNY     47  32  56 W16       29.99S
HALLOCK        SUNNY     45  34  65 W12       30.02R
ROSEAU         SUNNY     45  34  65 W14G20    29.97S
WARROAD        SUNNY     43  34  70 W14       29.95S
THIEF RVR FALL SUNNY     45  30  57 W13       30.04R
CROOKSTON      SUNNY     48  34  57 NW18      30.07R
FOSSTON        SUNNY     45  30  57 W15G23    30.04R
DETROIT LAKES  SUNNY     46  34  61 NW15      30.07R
MOORHEAD       MOSUNNY   50  32  50 NW10      30.10R
PARK RAPIDS    SUNNY     48  32  53 NW13      30.02R
MAHNOMEN       FAIR      44  32  63 NW15G24   30.05R
$$
MNZ006-009>011-018-025>026-251600-
   North Central Minnesota

CITY           SKY/WX    TMP DP  RH WIND       PRES   REMARKS
BAUDETTE       SUNNY     45  31  58 NW12G18   29.93R
FLAG ISLAND    SUNNY     45  34  65 W21G29    29.90R
INTL FALLS     SUNNY     46  32  58 W14G23    29.88S
WASKISH        SUNNY     46  36  66 W13G21    29.96S
BIG FORK       SUNNY     48  32  53 W12G17    29.94R
LONGVILLE      SUNNY     52  28  40 W12G24    29.97S
GRAND RAPIDS   SUNNY     46  30  53 W15G22    29.95S
CRANE LAKE     SUNNY     46  30  53 W7        29.88S
ORR            SUNNY     46  28  49 W13G21    29.87R
COOK           SUNNY     46  32  57 W12G20    29.90R
WALKER         FAIR      46  31  56 W13G21    29.99R
$$
MNZ012-019>021-037-251600-
   Northeast Minnesota

CITY           SKY/WX    TMP DP  RH WIND       PRES   REMARKS
DULUTH         SUNNY     50  31  48 NW18G28   29.91R
ELY            SUNNY     46  30  53 W20G28    29.85S
HIBBING        SUNNY     50  31  48 NW13G23   29.91S
EVELETH        SUNNY     46  32  57 NW13G22   29.91S
DULUTH HARBOR  SUNNY     52  36  54 W15       29.94R
TWO HARBORS    SUNNY     54  21  28 NW12G26   29.85S
SILVER BAY     SUNNY     52  32  46 W10G28      N/A
GRAND MARAIS     N/A     53  34  48 NW16G36   29.72R
G MARAIS ARPRT SUNNY     46  30  53 W17G29    29.75R
$$
MNZ029>031-032-039>041-046>048-054>057-064-251600-
   West Central Minnesota

CITY           SKY/WX    TMP DP  RH WIND       PRES   REMARKS
FERGUS FALLS   SUNNY     45  30  57 NW8       30.12R
WHEATON        PTSUNNY   48  36  61 W10       30.13F
MORRIS         MOSUNNY   52  37  58 NW10      30.10R
ALEXANDRIA     MOSUNNY   48  35  60 W12       30.09R
ELBOW LAKE     FAIR      46  35  64 NW8       30.10S
WADENA         SUNNY     46  36  66 W6        30.05S
GLENWOOD       PTSUNNY   48  36  61 NW10      30.09S
APPLETON       PTSUNNY   55  36  47 NW9       30.11R
BENSON         PTSUNNY   52  36  54 N9        30.11R
ORTONVILLE     MOSUNNY   54  34  47 NW7       30.11S
MADISON        MOSUNNY   55  37  50 NW7       30.13R
WILLMAR        FAIR      52  36  54 NW9       30.12R
$$
MNZ033>034-036-042>043-049>051-058-059-251600-
   Central Minnesota

CITY           SKY/WX    TMP DP  RH WIND       PRES   REMARKS
ST CLOUD       SUNNY     54  34  46 NW12      30.05R
SAUK CENTRE    FAIR      48  35  59 W9        30.08R
PAYNESVILLE    PTSUNNY   47  33  59 W9        30.09R
AITKIN         SUNNY     52  34  50 W7        29.98R
PINE RIVER     SUNNY     48  34  57 W10       30.04S
BRAINERD       SUNNY     48  33  56 W13       30.02S
STAPLES        SUNNY     46  34  61 W13       30.04S
LONG PRAIRIE   FAIR      46  32  57 W10       30.07R
LITTLE FALLS   SUNNY     50  32  50 W10G16    30.04S
LITCHFIELD     PTSUNNY   54  34  47 NW10      30.08S
BUFFALO        MOSUNNY   52  34  50 W7        30.07R
MAPLE LAKE     MOSUNNY   53  38  56 W9G16     30.07R
$$
MNZ037-044-045-052-053-251600-
   East Central Minnesota

CITY           SKY/WX    TMP DP  RH WIND       PRES   REMARKS
PRINCETON      SUNNY     54  36  50 W12G17    30.04R
MORA           SUNNY     50  34  53 NW9       30.03R
CAMBRIDGE      SUNNY     54  37  54 NW12G17   30.02R
RUSH CITY      MOSUNNY   51  36  55 W8        30.02R
MOOSE LAKE     SUNNY     50  32  50 W10G16    29.96S
HINCKLEY       FAIR      52  34  50 NW9       30.00R
CLOQUET        SUNNY     50  30  46 W16G24    29.94S
MCGREGOR       SUNNY     50  32  50 W8G20     29.98S
$$
MNZ071>073-080-081-089-090-097-098-251600-
   Southwest Minnesota

CITY           SKY/WX    TMP DP  RH WIND       PRES   REMARKS
MONTEVIDEO     MOSUNNY   55  37  50 N7        30.12R
GRANITE FALLS  MOSUNNY   54  37  53 NW9       30.13S
CANBY          SUNNY     55  35  47 NW8       30.14S
MARSHALL       SUNNY     55  34  44 NW13      30.12R
REDWOOD FALLS  SUNNY     55  35  47 NW9       30.11R
OLIVIA         MOSUNNY   52  36  54 NW8       30.10R
PIPESTONE      SUNNY     54  36  50 CALM      30.13R
WINDOM         SUNNY     57  34  41 N12G18    30.12R
WORTHINGTON    SUNNY     55  36  47 N10       30.14R
JACKSON        SUNNY     55  34  44 NW8       30.12R
TRACY          SUNNY     57  35  44 N12       30.13R
SLAYTON        SUNNY     55  35  46 NW8       30.13S
$$
MNZ065>067-074>077-082>085-091>093-251600-
   South Central Minnesota

CITY           SKY/WX    TMP DP  RH WIND       PRES   REMARKS
MANKATO        PTSUNNY   55  36  47 NW12      30.09R
NEW ULM        SUNNY     55  37  50 NW9       30.10R
ST JAMES       SUNNY     57  36  44 NW13      30.12R
FAIRMONT       SUNNY     57   7  13 NW10      30.11R
GLENCOE        CLOUDY    55  37  51 NW9       30.07S
FARIBAULT      PTSUNNY   55  36  47 NW9       30.06S
OWATONNA       MOSUNNY   55  37  50 NW12      30.06S
WASECA         MOSUNNY   54  34  47 NW6       30.09S
ALBERT LEA     SUNNY     55  37  50 NW5       30.08R
$$
MNZ078>079-086>088-094>096-251600-
   Southeast Minnesota

CITY           SKY/WX    TMP DP  RH WIND       PRES   REMARKS
ROCHESTER      PTSUNNY   54  38  54 NW12G21   30.05R
RED WING       MOSUNNY   57  37  47 NW9G17    30.01S
STANTON        PTSUNNY   55  38  54 W9        30.04R
DODGE CENTER   PTSUNNY   54  39  58 NW13      30.05F
WINONA         SUNNY     55  41  58 N6        30.02R
AUSTIN         MOSUNNY   54  41  62 NW10G17   30.06S
PRESTON        MOSUNNY   53  39  58 NW14      30.04S
$$
ABBREVIATIONS USED IN REMARKS
   TC - TEMPERATURES IN CELSIUS
  WCI - WIND CHILL INDEX
   HX - HEAT INDEX
  VSB - VISIBILITY
$$



USA.gov is the U.S. government's official web portal to all federal, state and local government web resources and services.